Location: *
(44.0833°N, 4.6150°E)
Time: 09:37:43
(UTC+00:00)

Daily predictions for brighter satellites

Satellite Brightness Start Highest point End
(mag) Time Altitude Azimuth Time Altitude Azimuth Time Altitude Azimuth
Cosmos 1934 Rocket 4.1 17:07:19 10° N 17:13:35 58° ENE 17:19:51 10° SSE
CSL-04 Rocket 4.5 17:10:00 10° SE 17:14:45 31° ENE 17:19:29 10° N
USA 238 DEB 4.3 17:09:52 10° S 17:15:49 36° ESE 17:21:55 10° NE
USA 238 4.3 17:09:59 10° S 17:15:56 35° ESE 17:22:00 10° NE
Meteor 2-10 4.1 17:14:42 10° S 17:19:36 54° E 17:24:31 10° NNE
COBE Rocket 4.1 17:16:03 10° NNE 17:21:05 53° E 17:25:59 10° S
Nadezhda 3 Rocket 4.4 17:15:52 10° SSW 17:22:09 75° W 17:28:32 10° N
Cosmos 1535 Rocket 4.4 17:20:48 10° N 17:27:00 73° E 17:33:06 10° SSE
Unknown 4.2 17:23:53 10° NW 17:27:03 31° NNE 17:30:03 11° E
YAOGAN 6 3.2 17:27:10 10° SE 17:30:31 36° ENE 17:33:52 10° N
Cosmos 292 Rocket 3.8 17:26:15 10° SSW 17:30:59 87° WNW 17:35:47 10° NNE
Cosmos 1833 Rocket 2.9 17:29:04 10° NNW 17:34:33 50° ENE 17:39:59 10° SE
Lacrosse 5 rocket 4.3 17:34:27 10° W 17:36:34 14° WSW 17:38:45 10° SSW
NOSS 3-2 (A) 3.8 17:33:45 10° S 17:39:00 39° ESE 17:44:48 10° NE
Ariane Rocket 4.0 17:38:11 10° ESE 17:42:16 25° ENE 17:46:22 10° N
Cosmos 2228 4.3 17:38:52 10° SSW 17:43:03 45° WNW 17:47:13 10° N
Cosmos 1328 3.8 17:39:34 10° N 17:43:34 83° W 17:47:29 10° S
YAOGAN 1 2.8 17:40:35 10° SE 17:44:42 46° ENE 17:48:51 10° N
SKYMED 2 3.5 17:40:48 10° NNE 17:45:08 66° E 17:49:27 10° S
Cosmos 1300 3.6 17:49:06 10° SSE 17:52:20 27° E 17:55:36 10° NNE
Cosmos 1939 Rocket 3.7 17:50:03 10° SE 17:53:30 29° ENE 17:57:02 10° N
Shenzhou-11 Module 2.8 17:51:59 10° W 17:54:36 38° SSW 17:56:17 18° SE
Abrixas rocket 2.5 17:52:51 10° W 17:55:52 53° NNW 17:57:37 22° NE
CZ-2D R/B 3.9 17:53:12 10° SE 17:56:40 33° ENE 18:00:11 10° N
CSL-04 Debris 4.1 17:57:30 10° SSE 18:02:57 76° ENE 18:08:26 10° N
NOSS 3-2 (C) 3.8 17:59:30 10° S 18:04:44 39° ESE 18:09:34 14° NE
Cosmos 1777 Rocket 4.4 17:59:33 10° NNW 18:04:45 67° WSW 18:09:53 10° S
Cosmos 2082 Rocket 2.2 17:59:49 10° NNW 18:05:29 60° ENE 18:11:05 10° SE
ADEOS Rocket 4.5 18:00:23 10° NE 18:05:41 20° E 18:10:41 10° SE
BREEZE-M DEB (TANK) 3.9 18:01:36 10° WNW 18:06:09 79° NNE 18:18:49 13° ESE
Cosmos 1153 Rocket 4.4 18:04:31 10° N 18:10:38 67° E 18:16:45 10° SSE
ASTEX 1 4.0 18:05:56 10° N 18:10:50 59° W 18:15:43 10° SSW
USA 116 3.2 18:07:58 10° NNE 18:11:13 79° ESE 18:14:46 10° S
Unknown 3.0 18:14:51 10° NW 18:18:16 78° NNE 18:19:12 45° ESE
Cosmos 1461 3.3 18:16:44 10° NW 18:20:48 63° WSW 18:24:54 11° SSE
Meteor 2-1 Rocket 4.4 18:17:59 10° SSE 18:23:12 45° E 18:28:29 10° NNE
Cosmos 1763 Rocket 4.5 18:19:24 10° SSE 18:22:48 26° ESE 18:22:48 26° ESE
CZ-4 R/B 2.4 18:20:20 10° S 18:24:23 49° W 18:28:31 10° NNW
Lacrosse 5 1.8 18:19:42 10° NW 18:24:48 86° NE 18:27:31 28° SE
SJ 16-02 2.7 18:23:09 10° N 18:25:44 22° NE 18:25:44 22° NE
FALCON 9 DEB 3.0 18:24:00 10° NW 18:27:29 79° NNE 18:27:59 62° ESE
In-Cosmos 22 Rocket 4.3 18:24:10 10° N 18:29:26 50° ENE 18:32:45 22° SE
ATLAS 3B R/B 2.9 18:26:00 10° S 18:32:18 43° ESE 18:35:04 29° ENE
COSMO-SKYMED 1 4.0 18:29:05 10° N 18:33:08 38° WNW 18:37:08 10° SW
ATLAS 5 CENTAUR R/B 4.4 18:33:19 10° NW 18:34:47 11° NNW 18:36:19 10° N
Cosmos 2084 Rocket 3.4 18:30:30 10° NW 18:34:56 75° NE 18:36:06 48° ESE
Unknown 4.1 18:36:20 10° NW 18:39:39 39° NNE 18:39:39 39° NNE
CENTAUR R/B 2.6 18:34:23 10° S 18:40:00 50° ESE 18:42:36 33° ENE
H-2A R/B 3.2 18:42:58 28° NE 18:42:58 28° NE 18:46:33 10° N
Falcon 9 debris 3.2 18:38:45 10° WNW 18:42:11 70° SW 18:42:11 70° SW
Unknown 3.1 18:39:16 10° NW 18:42:37 80° NW 18:42:37 80° NW
Gbstr 26 Del rocket 4.3 18:36:59 10° WNW 18:43:10 68° SW 18:47:35 25° SE
Cosmos 2278 Rocket 3.5 18:39:45 10° SW 18:45:03 40° WNW 18:50:24 10° NNE
Cosmos 1459 Rocket 3.9 18:39:06 10° N 18:45:21 72° E 18:51:39 10° SSE
Cosmos 2061 Rocket 4.0 18:40:51 10° N 18:46:58 55° ENE 18:49:21 35° SE
Cosmos 2297 3.6 18:43:02 10° SSW 18:48:43 77° ESE 18:53:21 16° NNE
Cosmos 1898 Rocket 3.5 18:43:55 10° NNW 18:49:10 62° ENE 18:50:02 54° ESE
Okean 3 Rocket 3.8 18:56:30 10° N 19:00:14 59° NNE 19:00:14 59° NNE
Cosmos 1076 Rocket 4.5 18:57:05 10° NNW 19:01:16 47° W 19:05:25 10° SSW
ARGOS 4.1 19:05:13 33° NNE 19:05:13 33° NNE 19:08:37 10° N
Unknown 4.5 19:01:00 10° WNW 19:03:31 40° W 19:03:31 40° W
USA 238 DEB 4.3 18:59:57 10° WSW 19:06:30 53° NW 19:12:35 13° NNE
USA 238 4.3 19:00:03 10° WSW 19:06:36 54° NW 19:12:38 13° NNE
Cosmos 44 3.4 19:04:12 10° SW 19:09:08 70° NW 19:09:47 61° N
Cosmos 2058 3.8 19:07:45 10° NNW 19:11:50 48° W 19:13:00 37° SW
Cosmos 2173 Rocket 4.2 19:07:26 10° NNW 19:13:39 70° W 19:19:44 10° S
Cosmos 1864 Rocket 4.3 19:12:58 10° N 19:18:59 73° ENE 19:18:59 73° ENE
Ariane Rocket 4.0 19:16:06 10° S 19:20:57 45° W 19:25:52 10° NNW
Cosmos 1802 Rocket 4.2 19:15:55 10° NNW 19:22:21 74° W 19:26:33 23° S
MOS 1 4.4 19:20:54 43° S 19:22:45 71° WSW 19:28:25 10° NNW
Cosmos 2123 Rocket 3.8 19:18:20 10° S 19:24:50 79° ENE 19:30:55 10° N
Cosmos 468 Rocket 4.3 19:22:11 10° SSW 19:27:25 64° WNW 19:28:19 54° NNW
NOSS 3-2 (A) 4.4 19:24:10 10° WSW 19:29:44 43° NW 19:33:48 21° NNE
Cosmos 1725 Rocket 3.9 19:29:57 10° N 19:36:08 84° WNW 19:36:08 84° WNW
Cosmos 1937 Rocket 4.3 19:35:39 10° NNW 19:39:25 47° NW 19:39:25 47° NW
Cosmos 2082 Rocket 4.4 19:44:54 10° NW 19:49:03 21° W 19:53:10 10° SSW
ADEOS Rocket 3.4 19:44:23 10° NNE 19:52:04 83° WNW 19:59:06 10° SSW
NOSS 3-2 (C) 4.4 19:49:56 10° WSW 19:55:32 44° NW 19:57:04 37° N
SJ 16-02 3.9 20:01:27 10° NW 20:02:46 18° NW 20:02:46 18° NW
Lacrosse 5 4.2 20:03:55 10° W 20:06:45 17° WSW 20:06:45 17° WSW
H-2A R/B 4.0 20:23:36 26° NW 20:23:36 26° NW 20:26:13 10° NNW
ATLAS 3B R/B 3.6 20:16:36 10° WSW 20:22:24 43° WNW 20:22:24 43° WNW
CENTAUR R/B 3.8 20:25:07 10° WSW 20:29:52 37° WNW 20:29:52 37° WNW
